Regional Weather Roundup
Issued by NWS

Home | Current Version | Previous Version | Text Only | Print | Product List | Glossary Off
Versions: 1 2 3 4 5 6 7 8 9 10 11 12 13 14 15 16 17 18 19 20 21 22 23 24 25 26 27

000
ASUS45 KTFX 170810
RWRMT
MONTANA REGIONAL WEATHER ROUNDUP
NATIONAL WEATHER SERVICE GREAT FALLS MT
100 AM MST TUE JAN 17 2017

NOTE: "FAIR" INDICATES FEW OR NO CLOUDS BELOW 12000 FEET WITH NO
SIGNIFICANT WEATHER AND/OR OBSTRUCTIONS TO VISIBILITY.

MTZ001>007-043-170900-
WEST OF THE DIVIDE

CITY           SKY/WX    TMP DP  RH WIND       PRES   REMARKS
KALISPELL      FOG       11   9  92 CALM      30.17F VSB 3/4
MISSOULA       MOCLDY     1  -3  83 CALM      30.23F
BUTTE          CLOUDY    -1  -6  79 CALM      30.10F
MULLAN PASS    CLEAR     23  16  74 S9        30.01F WCI  13
ANACONDA         N/A     12   3  67 CALM      30.10F
DEER LODGE       N/A      1  -2  85 W6        30.15S WCI -10
EUREKA           N/A     16   9  73 S7        30.13F WCI   6
HAMILTON         N/A      3   0  85 CALM      30.19S
PLAINS           N/A     -3 -11  69 CALM      30.21F
RONAN            N/A     -3 -10  72 MISG      30.16F
THOMPSON FALLS   N/A      7   2  80 E8        30.22  WCI  -5
$$

MTZ008-052>055-170900-
SOUTHWEST MONTANA

CITY           SKY/WX    TMP DP  RH WIND       PRES   REMARKS
BOZEMAN        CLOUDY     2  -2  83 S3        30.11F
DILLON         CLOUDY    19   2  47 S9        30.11F WCI   8
W YELLOWSTONE  CLOUDY   N/A N/A N/A CALM      30.19F
ENNIS          CLEAR     16   9  73 S9        30.15F WCI   4
TWIN BRIDGES     N/A      7  -5  57 SE5       30.09F
$$

MTZ009-010-012-014-046-048-049-054-170900-
EAST SLOPES AND CENTRAL MONTANA

CITY           SKY/WX    TMP DP  RH WIND       PRES   REMARKS
CUT BANK       CLOUDY    38  20  48 W28       29.77F WCI  26
GREAT FALLS    CLOUDY    34  17  50 S23       29.88F WCI  22
MALMSTROM AFB  CLOUDY    32  22  65 SW21      29.89S WCI  20
HELENA         CLOUDY     4   0  83 NW3       30.11F
AUGUSTA          N/A     42  15  33 W24G30    29.87S
BOWMANS CRNR     N/A     26  13  59 S29       29.88F WCI   9
CHOTEAU          N/A     43  18  36 W15       29.84F
CONRAD           N/A     24  18  78 S7        29.85F WCI  16
FAIRFIELD        N/A     30  17  56 S26G32    29.85F WCI  16
POWER            N/A     31  18  58 SW20      29.85F WCI  19
RAYNESFORD       N/A     41  18  38 SW17G25   29.88S
ULM              N/A     36  18  47 MISG      29.91F
$$

MTZ011-013-016-021-045-047-050-051-170900-
NORTH CENTRAL MONTANA

CITY           SKY/WX    TMP DP  RH WIND       PRES   REMARKS
HAVRE          CLOUDY    33  22  63 SW23      29.81S WCI  21
LEWISTOWN      CLOUDY    21  11  65 SE9       29.87F WCI  11
N BAR RANCH      N/A     28  12  50 W13       29.88F WCI  18
CHINOOK          N/A     10   7  85 CALM      29.83F
DENTON           N/A     22  15  73 SW13      29.83F WCI  10
FORT BENTON      N/A     37  21  52 MISG      29.87S
GEYSER           N/A     37  20  50 W26G33    29.84F WCI  25
GRASS RANGE      N/A     29  17  58 NW3       29.83F
JUDITH GAP       N/A     29  15  55 SW16      29.88F WCI  18
ROY              N/A     34  19  54 MISG      29.83F
STANFORD         N/A     37  22  55 S7        29.85F WCI  32
WINIFRED         N/A     36  19  50 W10       29.83F WCI  29
$$

MTZ017>020-022>027-061-062-170900-
NORTHEAST MONTANA

CITY           SKY/WX    TMP DP  RH WIND       PRES   REMARKS
GLASGOW        CLOUDY     8   4  83 SE10      29.88F WCI  -6
JORDAN           N/A      6   1  80 NW7       29.89F WCI  -6
SIDNEY         CLOUDY    10   5  80 SW18      29.96F WCI  -8
WOLF POINT     CLOUDY    -2  -6  83 CALM      29.93F
PLENTYWOOD       N/A      9   7  92 E6        29.89S WCI  -1
POPLAR           N/A     12   9  85 CALM      29.92F
SCOBEY           N/A     13   2  61 SE8       29.85F WCI   2
$$

MTZ028>42-056>058-170900-
SOUTHCENTRAL AND SOUTHEAST MONTANA

CITY           SKY/WX    TMP DP  RH WIND       PRES   REMARKS
BAKER          CLOUDY     2  -3  80 N5        29.97F
BILLINGS       CLOUDY    24   8  50 SW28      29.95F WCI   7
LIVINGSTON     CLOUDY    31  13  47 W31       30.01F WCI  16
MILES CITY     CLOUDY    11   4  73 S8        29.98F WCI  -1
BIG TIMBER     CLEAR     34  14  44 W32G44    29.95S WCI  20
FORSYTH          N/A      5   1  85 S3        29.97F
HARLOWTON        N/A     33  14  46 W33G39    29.91F WCI  18
LAUREL           N/A     21   7  55 SW10      29.96F WCI  10
$$

REGIONAL REPORTS...DAKOTAS

CITY           SKY/WX    TMP DP  RH WIND       PRES   REMARKS
WILLISTON      CLOUDY     7   5  91 S6        29.96F WCI  -3
MINOT          CLOUDY    17  12  80 SW10      29.95F WCI   5
DICKINSON      CLOUDY    16   8  71 SW5       29.95F
BEACH            N/A     19   9  63 SW9       29.99F WCI   9
CROSBY           N/A     10   7  85 SW20      29.92F WCI  -8
TIOGA            N/A     14  14 100 S10       29.94F WCI   1
WATFORD CITY     N/A      3   0  85 CALM      29.97F
BISMARCK       CLOUDY     7   3  84 W3        30.03F
GRAND FORKS    CLOUDY     3  -2  79 SW6       30.00R WCI  -8
FARGO          CLOUDY     2  -1  88 W8        30.02R WCI -12
BUFFALO SD       N/A     16   8  71 SW5       29.92F
RAPID CITY     CLOUDY    17   9  70 CALM      30.03F
$$

REGIONAL REPORTS...WYOMING/IDAHO/WASHINGTON

CITY           SKY/WX    TMP DP  RH WIND       PRES   REMARKS
GILLETTE       CLOUDY    15   7  70 S6        30.00F WCI   6
SHERIDAN       CLOUDY     8   0  69 CALM      29.97F
BUFFALO WY     CLOUDY    28   3  34 CALM      29.97F
CODY           CLOUDY     7   3  84 CALM      30.01F
YELLOWSTONE LA   N/A     -9 -12  87 CALM      30.16F
IDAHO FALLS    CLOUDY    -6  -8  91 N8        30.30F WCI -21
SALMON         CLOUDY   -15 -17  91 CALM      30.42S
BOISE          CLEAR      2  -1  88 CALM      30.41S FOG
SPOKANE        MOCLDY    12   8  84 SE7       30.14F FOG     WCI   1
$$

REGIONAL REPORTS...ALBERTA

CITY           SKY/WX    TMP DP  RH WIND       PRES   REMARKS
EDMONTON       CLOUDY    39  25  56 W3        29.36R
CALGARY        PTCLDY    41  28  60 SW3       29.55F
LETHBRIDGE     CLEAR     39  25  56 W28G38    29.71S WCI  28
MEDICINE HAT   CLEAR     39  25  56 SW26G33   29.65F WCI  28
WATERTON GATE    N/A     39  18  41 SW30G45     N/A  WCI  27
CARDSTON         N/A     48  25  40 SW15G30     N/A
MILK RIVER       N/A     45  25  45 SW10G21     N/A
$$

REGIONAL REPORTS...SASKATCHEWAN

CITY           SKY/WX    TMP DP  RH WIND       PRES   REMARKS
SWIFT CURRENT  CLEAR     27  19  74 SW23G29   29.65F WCI  12
REGINA         MOCLDY    18  12  79 S15       29.77F WCI   3
SASKATOON      CLEAR     25  16  68 S16G22    29.61F WCI  12
CYPRESS HILLS    N/A     28  16  59 S8          N/A  WCI  20
VAL MARIE        N/A      9   5  85 SW12        N/A  WCI  -6
ROCKGLEN         N/A     23  14  68 SW21        N/A  WCI   8
$$




USA.gov is the U.S. government's official web portal to all federal, state and local government web resources and services.